Find Meteor

NORAD ID: 6079 Int'l Des: 1972-049 Owner: GUKOSR/GMS Country: SU operational
Also known as: METEOR 1-12 spacetrack, celestrak
LEOCIRCULARPOLAR

Current View

Loading 3D Globe...

About Meteor

Meteor (NORAD 6079) is a satellite by GUKOSR/GMS of SU. It operates in LEO, CIRCULAR, POLAR orbit

Upcoming Passes

Passes for default location (London). Set your location on the main map for personalized predictions.

Altitude History

Loading altitude history...

Two-Line Element Set

1 06079U 72049A 26230.11762636 .00000133 00000-0 76771-4 0 9998
2 06079 81.2267 287.5868 0009759 303.6857 56.3379 14.03588442769796
Epoch: Aug 18, 2026 • Age: 15 hours

Current Status

Altitude 882.2 km
Apogee / Perigee N/A
Velocity 7.41 km/s
Sub-Earth Point 18.69°N, 48.16°E
Type other

Most Searched